Lone Rock, WI

5:05 AM CDT on May 26, 2017 (GMT -0500)
Tri-County Regional

Weather History for KLNR - January, 2013

Change the Weather History Date:

Monday, January 7, 2013

  Actual Average Record
Temperature  
Mean Temperature 20 °F -  
Max Temperature 37 °F 26 °F 48 °F (2003)
Min Temperature 3 °F 12 °F -20 °F (1999)
Degree Days  
Heating Degree Days 45    
Moisture  
Dew Point 16 °F    
Average Humidity 70    
Maximum Humidity 88    
Minimum Humidity 52    
Precipitation  
Precipitation 0.00 in - - ()
Sea Level Pressure  
Sea Level Pressure 30.11 in    
Wind  
Wind Speed 5 mph (SSW)    
Max Wind Speed 16 mph    
Max Gust Speed 28 mph    
Visibility 9 miles    
Events      
Averages and records for this station are not official NWS values.
T = Trace of Precipitation, MM = Missing Value Source: NWS Daily Summary

Daily Weather History Graph

Daily Weather History Graph

Search for Another Location

Airport or City:

Trip Planner

Search our weather history database for the weather conditions in past years. The results will help you decide how hot, cold, wet, or windy it might be!

Date:

Astronomy

Jan. 07, 2013 Rise Set
Actual Time 7:32 AM CST 4:42 PM CST
Civil Twilight 7:00 AM CST 5:14 PM CST
Nautical Twilight 6:24 AM CST 5:49 PM CST
Astronomical Twilight 5:50 AM CST 6:24 PM CST
Moon 2:54 AM CST (1/7) 12:54 PM CST (1/7)
Length of Visible Light 10h 13m
Length of Day
9h 09m
Waning Crescent, 22% of the Moon is Illuminated
Jan 7
Waning Crescent
Jan 11
New
Jan 18
First Quarter
Jan 26
Full
Feb 3
Last Quarter

Hourly Weather History & Observations

Time (CST) Temp. Windchill Dew Point Humidity Pressure Visibility Wind Dir Wind Speed Gust Speed Precip Events Conditions
12:56 AM 5.0 °F -2.1 °F 1.9 °F 87% 30.27 in 6.0 mi ESE 3.5 mph - N/A   Clear
1:56 AM 5.0 °F -2.1 °F 1.0 °F 84% 30.26 in 8.0 mi ENE 3.5 mph - N/A   Clear
2:56 AM 3.0 °F - -0.9 °F 84% 30.26 in 6.0 mi Calm Calm - N/A   Clear
3:56 AM 3.9 °F - 1.0 °F 88% 30.24 in 7.0 mi Calm Calm - N/A   Clear
4:56 AM 5.0 °F - 1.0 °F 84% 30.22 in 9.0 mi Calm Calm - N/A   Clear
5:56 AM 17.1 °F 11.7 °F 10.9 °F 77% 30.18 in 10.0 mi SSE 3.5 mph - N/A   Clear
6:56 AM 19.9 °F 14.9 °F 12.0 °F 71% 30.16 in 10.0 mi South 3.5 mph - N/A   Clear
7:56 AM 21.9 °F 14.5 °F 14.0 °F 72% 30.16 in 10.0 mi SSW 5.8 mph - N/A   Clear
9:56 AM 28.9 °F 20.4 °F 16.0 °F 58% 30.13 in 10.0 mi SSW 9.2 mph - N/A   Clear
10:56 AM 32.0 °F 22.1 °F 19.0 °F 59% 30.09 in 10.0 mi SW 13.8 mph 19.6 mph N/A   Clear
11:56 AM 34.0 °F 24.6 °F 21.0 °F 59% 30.06 in 10.0 mi SSW 13.8 mph 27.6 mph N/A   Clear
12:56 PM 37.0 °F 27.7 °F 21.0 °F 52% 30.04 in 10.0 mi SW 16.1 mph 21.9 mph N/A   Clear
1:56 PM 37.0 °F 30.4 °F 21.9 °F 54% 30.02 in 10.0 mi WSW 9.2 mph 20.7 mph N/A   Clear
2:56 PM 37.0 °F 29.8 °F 23.0 °F 57% 30.04 in 10.0 mi WSW 10.4 mph - N/A   Clear
3:56 PM 36.0 °F 32.1 °F 24.1 °F 62% 30.04 in 10.0 mi SW 4.6 mph - N/A   Clear
4:56 PM 35.1 °F - 24.1 °F 64% 30.04 in 10.0 mi Calm Calm - N/A   Clear
6:56 PM 33.1 °F 28.7 °F 23.0 °F 66% 30.05 in 10.0 mi West 4.6 mph - N/A   Clear
7:56 PM 33.1 °F 27.7 °F 24.1 °F 70% 30.04 in 10.0 mi SW 5.8 mph - N/A   Clear
8:56 PM 32.0 °F 28.7 °F 24.1 °F 73% 30.04 in 10.0 mi West 3.5 mph - N/A   Clear
9:56 PM 32.0 °F - 23.0 °F 69% 30.04 in 10.0 mi Calm Calm - N/A   Clear
10:56 PM 30.0 °F 26.5 °F 21.9 °F 72% 30.04 in 9.0 mi South 3.5 mph - N/A   Clear
11:56 PM 27.0 °F - 21.0 °F 78% 30.05 in 8.0 mi Calm Calm - N/A   Clear